User: anonymous   Login
Location: STAR School
(35.3054°N, 111.2976°W)
Time: 14:36:10
(UTC-07:00)
Language:

DOVE 4 - Orbit

View from above orbital plane
View from above orbital plane
View from above satellite
View from above satellite

Ground track
Ground track

The orbit data is extracted from the following two-line orbital elements,

1 39430U 13066Q   19322.52995858  .00000165  00000-0  38483-4 0  9995
2 39430  97.7654 269.1595 0151911 131.9761 229.4492 14.59309269318891
Epoch (UTC): 18 November 2019 12:43:08
Eccentricity: 0.0151911
inclination: 97.7654°
perigee height: 588 km
apogee height: 803 km
right ascension of ascending node: 269.1595°
argument of perigee: 131.9761°
revolutions per day: 14.59309269
mean anomaly at epoch: 229.4492°
orbit number at epoch: 31889

The dashed part of the orbit path shows where the satellite is in the earth's shadow,  

DLR